Location: Mentone
(34.5413°N, 85.5351°W)
Time: 03:11:33
(UTC-05:00)

Vanguard 3 - All Passes

Search period start: 26 April 2015 00:00
Search period end: 06 May 2015 00:00
Orbit: 510 x 3270 km, 33.3° (Epoch: 25 April)

Date Brightness Start Highest point End Pass type
(mag) Time Alt. Az. Time Alt. Az. Time Alt. Az.
26 Apr - 00:43:19 10° WSW 00:53:13 20° SSW 01:04:11 10° S visible
26 Apr - 14:44:42 10° S 14:46:55 15° SE 14:49:34 10° ESE daylight
26 Apr - 16:53:22 10° WSW 16:57:46 64° SSE 17:04:57 10° E daylight
26 Apr - 19:03:55 10° W 19:10:02 81° S 19:21:17 10° E daylight
26 Apr - 21:15:03 10° W 21:23:29 55° SSW 21:38:12 10° SE visible
26 Apr - 23:28:14 10° W 23:38:18 28° SSW 23:51:51 10° SSE visible
27 Apr - 15:41:53 10° SW 15:45:33 38° SSE 15:50:38 10° E daylight
27 Apr - 17:52:06 10° W 17:57:04 82° S 18:05:48 10° E daylight
27 Apr - 20:02:53 10° W 20:09:49 66° SSW 20:22:31 10° ESE visible
27 Apr - 22:14:43 10° W 22:23:47 37° SSW 22:37:54 10° SSE visible
28 Apr - 00:31:46 10° WSW 00:39:15 15° SSW 00:46:43 10° S visible
28 Apr - 14:30:53 10° SSW 14:33:32 19° SSE 14:36:34 10° ESE daylight
28 Apr - 16:40:20 10° WSW 16:44:30 70° S 16:51:03 10° E daylight
28 Apr - 18:50:56 10° W 18:56:36 76° S 19:06:53 10° ESE daylight
28 Apr - 21:02:03 10° W 21:09:46 47° SSW 21:23:02 10° SE visible
28 Apr - 23:15:44 10° WSW 23:24:24 22° SSW 23:35:30 10° SSE visible
29 Apr - 15:28:39 10° SW 15:32:15 45° SSE 15:37:01 10° E daylight
29 Apr - 17:39:07 10° W 17:43:47 81° S 17:51:41 10° E daylight
29 Apr - 19:49:52 10° W 19:56:15 58° SSW 20:07:45 10° ESE visible
29 Apr - 22:01:56 10° W 22:10:01 30° SSW 22:22:07 10° SSE visible
30 Apr - 14:17:11 10° SSW 14:20:11 23° SSE 14:23:27 10° E daylight
30 Apr - 16:27:17 10° WSW 16:31:16 74° S 16:37:12 10° E daylight
30 Apr - 18:37:57 10° W 18:43:12 70° S 18:52:29 10° ESE daylight
30 Apr - 20:49:08 10° W 20:56:08 39° SSW 21:07:44 10° SE visible
30 Apr - 23:03:47 10° WSW 23:10:37 17° SSW 23:18:33 10° S visible
01 May - 13:06:39 10° S 13:07:59 12° SSE 13:09:23 10° SE daylight
01 May - 15:15:25 10° WSW 15:19:00 52° SSE 15:23:28 10° E daylight
01 May - 17:26:06 10° W 17:30:29 78° S 17:37:37 10° E daylight
01 May - 19:36:53 10° W 19:42:45 49° SSW 19:52:56 10° SE visible
01 May - 21:49:22 10° WSW 21:56:20 23° SSW 22:06:04 10° SSE visible
02 May - 14:03:33 10° SW 14:06:52 30° SSE 14:10:17 10° E daylight
02 May - 16:14:12 10° W 16:18:01 77° S 16:23:25 10° E daylight
02 May - 18:24:56 10° W 18:29:48 61° SSW 18:38:06 10° ESE daylight
02 May - 20:36:19 10° W 20:42:33 31° SSW 20:52:20 10° SSE visible
02 May - 22:53:26 10° SW 22:56:56 11° SSW 22:59:58 10° SSW visible
03 May - 12:51:55 10° SSW 12:54:38 17° SSE 12:57:08 10° ESE daylight
03 May - 15:02:09 10° WSW 15:05:45 60° SSE 15:09:57 10° E daylight
03 May - 17:13:03 10° W 17:17:11 73° S 17:23:36 10° ESE daylight
03 May - 19:23:58 10° W 19:29:16 39° SSW 19:38:04 10° SE daylight
03 May - 21:37:15 10° WSW 21:42:44 17° SSW 21:49:35 10° S visible
04 May - 13:49:54 10° SW 13:53:35 37° SSE 13:57:03 10° E daylight
04 May - 16:01:04 10° W 16:04:47 78° S 16:09:42 10° E daylight
04 May - 18:11:55 10° W 18:16:25 51° SSW 18:23:44 10° ESE daylight
04 May - 20:23:43 10° WSW 20:29:02 23° SSW 20:36:44 10° SSE visible
05 May - 12:37:35 10° SSW 12:41:18 23° SSE 12:44:23 10° ESE daylight
05 May - 14:48:49 10° WSW 14:52:30 67° S 14:56:29 10° E daylight
05 May - 16:59:57 10° W 17:03:53 64° S 17:09:38 10° ESE daylight
05 May - 19:11:06 10° W 19:15:50 30° SSW 19:23:07 10° SE daylight
05 May - 21:26:27 10° SW 21:29:12 11° SSW 21:31:49 10° S visible
